Regional Weather Roundup
Issued by NWS

Home | Current Version | Previous Version | Graphics & Text | Print | Product List | Glossary On
Versions: 1 2 3 4 5 6 7 8 9 10 11 12 13 14 15 16 17 18 19 20 21 22 23 24 25 26 27 28 29 30 31 32 33 34 35 36 37 38 39 40 41 42 43 44 45 46 47 48 49 50
187
ASUS43 KOAX 141902
RWRNE

WEATHER ROUNDUP FOR NEBRASKA
NATIONAL WEATHER SERVICE OMAHA NE
100 PM CST SUN FEB 14 2016

NOTES: SATELLITE DATA IS BEING USED TO AUGMENT CLOUD COVER ABOVE
       12000 FEET.
       "FAIR" INDICATES FEW OR NO CLOUDS BELOW 12,000 FEET WITH NO
       SIGNIFICANT WEATHER AND/OR OBSTRUCTIONS TO VISIBILITY.

  * THESE STATIONS DO NOT REPORT WEATHER SUCH AS RAIN...SNOW OR FOG.

NEZ001>004-019>022-054>056-142000-
NEBRASKA PANHANDLE

CITY           SKY/WX    TMP DP  RH WIND       PRES   REMARKS
SCOTTSBLUFF    SUNNY     53  22  29 NW24G37   29.82F
ALLIANCE       CLOUDY    44  20  38 W5        29.82F
CHADRON        PTSUNNY   45  24  43 W16       29.83F
SIDNEY         CLOUDY    45  26  47 SW18      29.86F
$$

NEZ057>060-069>072-079>082-142000-
SOUTHWEST NEBRASKA

CITY           SKY/WX    TMP DP  RH WIND       PRES   REMARKS
NORTH PLATTE   CLOUDY    46  28  49 W10       29.86F
IMPERIAL       CLOUDY    44  27  51 SW13      29.89F
MCCOOK         MOSUNNY   44  28  53 W14       29.90F
$$

NEZ005>010-023>029-035>040-094-142000-
NORTH CENTRAL NEBRASKA

CITY           SKY/WX    TMP DP  RH WIND       PRES   REMARKS
VALENTINE      PTSUNNY   46  25  43 NW17      29.80F
BROKEN BOW     PTSUNNY   50  29  44 NW15      29.82F
ORD            MOSUNNY   44  32  62 NW10      29.80F
$$

NEZ041-046>049-061>064-073>077-083>087-142000-
SOUTH CENTRAL NEBRASKA

CITY           SKY/WX    TMP DP  RH WIND       PRES   REMARKS
GRAND ISLAND   SUNNY     43  31  62 W6        29.84F
HASTINGS       SUNNY     43  30  60 NW6       29.84F
KEARNEY *      SUNNY     46  28  49 NW9       29.85F
$$

NEZ011>018-030>034-042>045-142000-
NORTHEAST NEBRASKA

CITY           SKY/WX    TMP DP  RH WIND       PRES   REMARKS
NORFOLK        CLOUDY    35  29  78 NW14      29.79F WCI  26
COLUMBUS *     CLOUDY    37  27  65 NW10      29.83F WCI  30
TEKAMAH        CLOUDY    28  20  71 CALM      29.83F
$$

NEZ050>053-065>068-078-088>093-142000-
SOUTHEAST NEBRASKA

CITY           SKY/WX    TMP DP  RH WIND       PRES   REMARKS
LINCOLN        CLOUDY    41  30  65 NE3       29.85S
OMAHA EPPLEY   CLOUDY    36  25  64 NW10      29.81F WCI  28
FALLS CITY     CLOUDY    45  26  47 W13G21    29.85F
$$

NEZ044-045-051>053-067-142000-
OMAHA AREA

CITY           SKY/WX    TMP DP  RH WIND       PRES   REMARKS
OMAHA EPPLEY   CLOUDY    36  25  64 NW10      29.81F WCI  28
OFFUTT AFB     SUNNY     39  28  65 W10       29.80F WCI  32
$$




USA.gov is the U.S. government's official web portal to all federal, state and local government web resources and services.